M5DJC Weather Reports


time (UTC)temp
C
wind
direction
speed
KPH
gust
KPH
rain 1hr
cm
rain 24hr
cm
rain mn
cm
humidity
%
barometer
mb
20260510210030 5 0 0.0 0.0 0.00 0.00 0.00 77 1015.5
20260510204544 5 0 0.0 0.0 0.00 0.00 0.00 75 1015.7
20260510203033 6 0 0.0 0.0 0.00 0.00 0.00 73 1015.8
20260510201532 6 127 0.0 4.8 0.00 0.00 0.00 72 1015.9
20260510200034 7 129 1.6 4.8 0.00 0.00 0.00 68 1016.1
20260510194531 7 125 3.2 6.4 0.00 0.00 0.00 67 1016.2
20260510193032 8 142 3.2 8.0 0.00 0.00 0.00 64 1016.3
20260510191532 8 139 3.2 8.0 0.00 0.00 0.00 61 1016.4
20260510190031 9 129 1.6 6.4 0.00 0.00 0.00 59 1016.6
20260510184534 10 148 1.6 6.4 0.00 0.00 0.00 56 1016.8
20260510183032 10 141 3.2 9.7 0.00 0.00 0.00 55 1016.9
20260510181536 10 94 3.2 6.4 0.00 0.00 0.00 55 1016.9
20260510180031 11 88 0.0 11.3 0.00 0.00 0.00 51 1017.0
20260510174535 12 46 1.6 11.3 0.00 0.00 0.00 49 1017.1
20260510173031 11 54 3.2 14.5 0.00 0.00 0.00 51 1017.1
20260510171531 11 14 1.6 11.3 0.00 0.00 0.00 51 1017.4
20260510170031 12 49 3.2 17.7 0.00 0.00 0.00 50 1017.5
20260510164543 12 302 1.6 17.7 0.00 0.00 0.00 50 1017.7
20260510163030 12 113 1.6 12.9 0.00 0.00 0.00 52 1017.9
20260510161534 12 124 3.2 11.3 0.00 0.00 0.00 52 1018.1
20260510160032 12 158 6.4 14.5 0.00 0.00 0.00 51 1018.2
20260510154544 12 154 4.8 20.9 0.00 0.00 0.00 51 1018.3
20260510153032 13 139 4.8 12.9 0.00 0.00 0.00 50 1018.3
20260510151530 13 180 4.8 16.1 0.00 0.00 0.00 48 1018.4
20260510150040 13 243 0.0 14.5 0.00 0.00 0.00 50 1018.4
20260510144540 13 299 3.2 11.3 0.00 0.00 0.00 49 1018.6
20260510143043 13 62 3.2 16.1 0.00 0.00 0.00 47 1018.7
20260510141534 13 229 4.8 14.5 0.00 0.00 0.00 48 1018.9
20260510140034 13 41 3.2 12.9 0.00 0.00 0.00 49 1019.1
20260510134530 13 3 4.8 11.3 0.00 0.00 0.00 48 1019.2
20260510133034 13 160 4.8 17.7 0.00 0.00 0.00 48 1019.2
20260510131544 13 25 3.2 14.5 0.00 0.00 0.00 51 1019.3
20260510130033 13 280 4.8 14.5 0.00 0.00 0.00 53 1019.4
20260510124530 13 147 3.2 20.9 0.00 0.00 0.00 54 1019.6
20260510123032 13 89 3.2 12.9 0.00 0.00 0.00 53 1019.6
20260510121538 12 22 3.2 14.5 0.00 0.00 0.00 52 1019.7
20260510120035 12 233 3.2 17.7 0.00 0.00 0.00 53 1019.8
20260510114536 13 137 4.8 14.5 0.00 0.00 0.00 53 1020.2
20260510113031 13 172 8.0 22.5 0.00 0.00 0.00 55 1020.3
20260510111531 12 137 3.2 14.5 0.00 0.00 0.00 58 1020.5
20260510110034 12 209 4.8 16.1 0.00 0.00 0.00 59 1020.6
20260510104532 12 64 6.4 22.5 0.00 0.00 0.00 56 1020.7
20260510103036 12 177 3.2 12.9 0.00 0.00 0.00 60 1020.9
20260510101532 12 310 4.8 17.7 0.00 0.00 0.00 60 1021.0
20260510100034 12 165 8.0 16.1 0.00 0.00 0.00 60 1021.0
20260510094535 10 156 8.0 19.3 0.00 0.00 0.00 65 1021.1
20260510093032 10 128 4.8 12.9 0.00 0.00 0.00 67 1021.3
20260510091533 10 177 1.6 14.5 0.00 0.00 0.00 70 1021.5
20260510090033 10 58 3.2 12.9 0.00 0.00 0.00 71 1021.5
20260510084535 10 148 4.8 16.1 0.00 0.00 0.00 73 1021.4
20260510083030 10 212 3.2 17.7 0.00 0.00 0.00 75 1021.3
20260510081532 10 15 1.6 12.9 0.00 0.00 0.00 73 1021.3
20260510080034 10 0 1.6 12.9 0.00 0.00 0.00 75 1021.2
20260510074536 9 148 3.2 16.1 0.00 0.00 0.00 76 1021.4
20260510073037 9 0 1.6 14.5 0.00 0.00 0.00 76 1021.3
20260510071531 8 55 3.2 12.9 0.00 0.00 0.00 77 1021.3
20260510070032 8 142 3.2 16.1 0.00 0.00 0.00 77 1021.1
20260510064545 8 192 3.2 9.7 0.00 0.00 0.00 78 1021.3
20260510063032 8 150 1.6 12.9 0.00 0.00 0.00 79 1021.1
20260510061533 8 293 4.8 16.1 0.00 0.00 0.00 80 1021.1
20260510060036 7 221 1.6 12.9 0.00 0.00 0.00 82 1021.0
20260510054532 7 269 3.2 16.1 0.00 0.00 0.00 83 1021.0
20260510053042 7 261 1.6 12.9 0.00 0.00 0.00 83 1021.1
20260510051545 7 285 1.6 8.0 0.00 0.00 0.00 83 1021.1
20260510050032 7 299 1.6 11.3 0.00 0.00 0.00 83 1021.2
20260510044535 7 168 1.6 9.7 0.00 0.00 0.00 83 1021.1
20260510043032 7 315 1.6 11.3 0.00 0.00 0.00 83 1020.9
20260510041534 7 57 1.6 12.9 0.00 0.00 0.00 84 1020.9
20260510040036 8 154 1.6 9.7 0.00 0.00 0.00 85 1021.1
20260510034532 8 212 1.6 16.1 0.00 0.00 0.00 85 1021.4
20260510033032 8 0 3.2 12.9 0.00 0.00 0.00 85 1021.5
20260510031533 8 164 3.2 11.3 0.00 0.00 0.00 85 1021.6
20260510030031 8 345 1.6 11.3 0.00 0.00 0.00 85 1021.6
20260510024532 8 176 1.6 11.3 0.00 0.00 0.00 85 1021.5
20260510023032 8 0 1.6 9.7 0.00 0.00 0.00 86 1021.7
20260510021534 8 25 1.6 9.7 0.00 0.00 0.00 86 1021.7
20260510020032 8 131 3.2 11.3 0.00 0.00 0.00 85 1021.6
20260510014535 8 272 1.6 8.0 0.00 0.00 0.00 86 1021.3
20260510013035 8 0 1.6 9.7 0.00 0.00 0.00 86 1021.1
20260510011531 8 258 1.6 14.5 0.00 0.00 0.00 86 1021.1
20260510010030 9 14 1.6 8.0 0.00 0.00 0.00 86 1021.3
20260510004532 9 56 1.6 12.9 0.00 0.00 0.00 86 1021.4
20260510003037 9 324 3.2 12.9 0.00 0.00 0.00 86 1021.6
20260510001534 9 183 3.2 12.9 0.00 0.00 0.00 87 1021.6
20260510000034 9 0 1.6 6.4 0.00 0.00 0.00 86 1021.8
20260509234533 9 316 3.2 11.3 0.00 0.00 0.00 86 1021.7
20260509233032 9 189 1.6 14.5 0.00 0.00 0.00 86 1021.6
20260509231535 9 304 1.6 14.5 0.00 0.00 0.00 87 1021.5
20260509230034 9 293 1.6 8.0 0.00 0.00 0.00 88 1021.5
20260509224534 9 285 0.0 9.7 0.00 0.00 0.00 88 1021.5
20260509223032 8 201 1.6 14.5 0.00 0.00 0.00 88 1021.5
20260509221534 8 16 1.6 11.3 0.00 0.00 0.00 87 1021.5
20260509220040 9 216 1.6 9.7 0.00 0.00 0.00 86 1021.5
20260509214533 9 285 0.0 6.4 0.00 0.00 0.00 87 1021.4
20260509213035 9 358 0.0 6.4 0.00 0.00 0.00 87 1021.3
20260509211534 9 321 1.6 8.0 0.00 0.00 0.00 86 1021.4